De Queen, AR

1:58 PM CDT on September 15, 2019 (GMT -0500)
Helms Sevier County

Weather History for KDEQ - August, 2019

Change the Weather History Date:

Monday, August 19, 2019

  Actual Average Record
Temperature  
Mean Temperature 87 °F 81 °F  
Max Temperature 99 °F 94 °F 108 °F (2011)
Min Temperature 75 °F 69 °F 56 °F (1992)
Degree Days  
Heating Degree Days 0 0  
Month to date heating degree days 0 0  
Since 1 June heating degree days 0 0  
Since 1 July heating degree days 0 0  
Cooling Degree Days 22 16  
Month to date cooling degree days 369 317  
Year to date cooling degree days 1506 1409  
Since 1 June cooling degree days 1233 1192  
Growing Degree Days 37 (Base 50)    
Moisture  
Dew Point 77 °F    
Average Humidity 77    
Maximum Humidity 100    
Minimum Humidity 44    
Precipitation  
Precipitation 0.00 in 0.07 in 0.64 in (1946)
Month to date precipitation 0.35 1.29  
Year to date precipitation 37.43 30.71  
Snow  
Snow 0.00 in - - ()
Month to date snowfall 0.0  
Since 1 June snowfall 0.0  
Since 1 July snowfall 0.0  
Snow Depth 0.00 in    
Sea Level Pressure  
Sea Level Pressure 29.94 in    
Wind  
Wind Speed 2 mph ()    
Max Wind Speed 9 mph    
Max Gust Speed 12 mph    
Visibility 9.1 miles    
Events      
T = Trace of Precipitation, MM = Missing Value Source: Averaged Metar Reports

Daily Weather History Graph

Daily Weather History Graph

Search for Another Location

Airport or City:

Astronomy

Aug. 19, 2019 Rise Set
Actual Time 6:41 AM CDT 8:00 PM CDT
Civil Twilight 6:15 AM CDT 8:26 PM CDT
Nautical Twilight 5:44 AM CDT 8:57 PM CDT
Astronomical Twilight 5:11 AM CDT 9:29 PM CDT
Moon 10:31 PM CDT (8/19) 10:15 AM CDT (8/19)
Length of Visible Light 14h 10m
Length of Day
13h 18m
Waning Gibbous, 85% of the Moon is Illuminated
Aug 19
Waning Gibbous
Aug 23
Last Quarter
Aug 30
New
Sep 5
First Quarter
Sep 13
Full

Hourly Weather History & Observations

Time (CDT) Temp. Heat Index Dew Point Humidity Pressure Visibility Wind Dir Wind Speed Gust Speed Precip Events Conditions
12:53 AM 78.1 °F - 77.0 °F 96% 29.91 in 9.0 mi Calm Calm - N/A   Clear
1:53 AM 78.1 °F - 77.0 °F 96% 29.91 in 10.0 mi Calm Calm - N/A   Clear
2:53 AM 77.0 °F - 77.0 °F 100% 29.91 in 10.0 mi Calm Calm - N/A   Clear
3:53 AM 77.0 °F - 77.0 °F 100% 29.91 in 8.0 mi Calm Calm - N/A   Clear
4:53 AM 77.0 °F - 77.0 °F 100% 29.92 in 7.0 mi Calm Calm - N/A   Clear
5:53 AM 75.0 °F - 75.0 °F 100% 29.94 in 6.0 mi Calm Calm - N/A   Clear
6:53 AM 75.0 °F - 75.0 °F 100% 29.96 in 4.0 mi Calm Calm - N/A   Clear
7:53 AM 79.0 °F - 78.1 °F 97% 29.97 in 7.0 mi Calm Calm - N/A   Clear
8:53 AM 82.9 °F 92.8 °F 78.1 °F 85% 29.99 in 10.0 mi Calm Calm - N/A   Clear
9:53 AM 86.0 °F 98.3 °F 78.1 °F 77% 29.99 in 10.0 mi WNW 3.5 mph - N/A   Partly Cloudy
10:53 AM 89.1 °F 101.4 °F 77.0 °F 67% 29.98 in 10.0 mi South 4.6 mph - N/A   Clear
11:53 AM 91.9 °F 103.9 °F 75.9 °F 59% 29.98 in 10.0 mi Variable 4.6 mph - N/A   Clear
12:53 PM 93.9 °F 105.4 °F 75.0 °F 54% 29.97 in 10.0 mi South 6.9 mph - N/A   Clear
1:53 PM 96.1 °F 109.4 °F 75.9 °F 52% 29.96 in 10.0 mi Calm Calm - N/A   Clear
2:53 PM 98.1 °F 111.2 °F 75.0 °F 48% 29.94 in 10.0 mi South 8.1 mph - N/A   Clear
3:53 PM 98.1 °F 109.5 °F 73.9 °F 46% 29.91 in 10.0 mi SE 5.8 mph - N/A   Clear
4:53 PM 98.1 °F 109.5 °F 73.9 °F 46% 29.90 in 10.0 mi SSW 5.8 mph - N/A   Clear
5:53 PM 98.1 °F 108.0 °F 73.0 °F 44% 29.90 in 10.0 mi South 6.9 mph - N/A   Clear
6:53 PM 96.1 °F 107.1 °F 73.9 °F 49% 29.91 in 10.0 mi SSE 4.6 mph - N/A   Clear
7:53 PM 90.0 °F 104.5 °F 78.1 °F 68% 29.91 in 10.0 mi SE 4.6 mph - N/A   Clear
8:53 PM 84.0 °F 97.3 °F 80.1 °F 88% 29.93 in 10.0 mi Calm Calm - N/A   Clear
9:53 PM 82.0 °F 92.8 °F 80.1 °F 94% 29.95 in 10.0 mi Calm Calm - N/A   Clear
11:53 PM 80.1 °F 86.7 °F 79.0 °F 96% 29.97 in 9.0 mi Calm Calm - N/A   Clear